GW4081 Weather Reports


time (UTC)temp
F
wind
direction
speed
knots
gust
knots
rain 1hr
in
rain 24hr
in
rain mn
in
humidity
%
barometer
mb
20260510055604 61 87 4.3 11.3 0.00 0.16 0.00 88 1013.4
20260510055103 61 74 5.2 14.8 0.00 0.16 0.00 88 1013.0
20260510054603 61 63 7.0 14.8 0.00 0.16 0.00 89 1013.0
20260510053605 61 61 7.0 17.4 0.01 0.16 0.00 89 1013.0
20260510051103 63 33 2.6 8.7 0.04 0.16 0.00 90 1012.3
20260510050604 63 354 3.5 11.3 0.06 0.16 0.00 90 1012.3
20260510045604 64 10 4.3 15.6 0.10 0.16 0.16 89 1011.5
20260510045104 64 51 7.0 15.6 0.10 0.16 0.16 89 1010.0
20260510044603 64 12 7.0 13.9 0.11 0.16 0.16 89 1011.7
20260510044103 64 123 8.7 12.2 0.12 0.15 0.15 89 1009.5
20260510043603 65 95 4.3 10.4 0.14 0.15 0.15 87 1010.9
20260510043104 65 58 5.2 10.4 0.14 0.15 0.15 86 1011.4
20260510042604 65 60 2.6 10.4 0.13 0.14 0.14 86 1012.0
20260510042103 66 2 5.2 11.3 0.13 0.14 0.14 85 1012.2
20260510041603 66 13 5.2 11.3 0.12 0.13 0.13 84 1012.0
20260510041103 66 6 4.3 13.9 0.11 0.12 0.12 82 1012.2
20260510040603 67 22 5.2 14.8 0.10 0.11 0.11 80 1012.5
20260510040104 68 322 7.8 15.6 0.07 0.08 0.08 77 1013.4
20260510035604 69 327 5.2 15.6 0.05 0.06 0.06 74 1012.9
20260510035103 70 309 7.0 15.6 0.05 0.06 0.06 73 1012.5
20260510034604 72 303 7.8 14.8 0.04 0.05 0.05 71 1012.5
20260510033605 76 334 2.6 10.4 0.00 0.01 0.01 61 1010.4
20260510033105 77 48 2.6 11.3 0.00 0.01 0.01 60 1008.8
20260510032105 78 84 5.2 14.8 0.00 0.01 0.01 56 1007.3
20260510031605 78 119 5.2 14.8 0.00 0.01 0.01 55 1007.1
20260510031105 78 103 10.4 14.8 0.00 0.01 0.01 54 1006.9
20260510030606 78 109 8.7 17.4 0.00 0.01 0.01 54 1006.9
20260510030105 78 143 8.7 17.4 0.00 0.01 0.01 55 1007.2
20260510025105 78 115 8.7 13.0 0.00 0.01 0.01 54 1007.0
20260510024605 78 119 8.7 13.0 0.00 0.01 0.01 54 1007.1
20260510024106 78 120 8.7 11.3 0.00 0.01 0.01 54 1007.2
20260510023606 78 153 4.3 10.4 0.00 0.01 0.01 53 1007.4
20260510023106 79 141 4.3 13.0 0.00 0.01 0.01 53 1007.4
20260510021605 79 128 6.1 11.3 0.00 0.01 0.01 51 1007.3
20260510021105 79 133 7.0 13.0 0.00 0.01 0.01 51 1007.3
20260510020605 79 143 8.7 13.0 0.00 0.01 0.01 50 1007.0
20260510020105 79 128 7.8 13.0 0.00 0.01 0.01 51 1006.6
20260510015605 79 142 7.8 13.0 0.00 0.01 0.01 51 1006.5
20260510015105 79 151 7.8 13.9 0.00 0.01 0.01 50 1006.1
20260510013605 79 146 7.8 12.2 0.00 0.01 0.01 49 1006.0
20260510013105 79 146 7.0 10.4 0.00 0.01 0.01 48 1006.1
20260510012605 79 133 6.1 11.3 0.00 0.01 0.01 48 1006.0
20260510012105 79 153 6.1 11.3 0.00 0.01 0.01 47 1006.2
20260510011605 80 143 6.1 11.3 0.00 0.01 0.01 47 1006.1
20260510011105 80 150 6.1 11.3 0.00 0.01 0.01 46 1006.2
20260510010105 80 140 6.1 11.3 0.00 0.01 0.01 45 1006.4
20260510005606 80 125 7.8 11.3 0.00 0.01 0.01 44 1006.3
20260510005105 81 136 7.8 11.3 0.00 0.01 0.01 45 1006.3
20260510004605 81 121 5.2 10.4 0.00 0.01 0.01 46 1006.4
20260510004105 81 152 7.8 11.3 0.00 0.01 0.01 45 1006.3
20260510003606 81 140 6.1 11.3 0.00 0.01 0.01 45 1006.6
20260510003106 81 151 6.1 11.3 0.00 0.01 0.01 45 1006.5
20260510002105 82 121 7.0 10.4 0.00 0.01 0.01 45 1006.3
20260510001605 82 138 7.8 11.3 0.00 0.01 0.01 44 1006.2
20260510000605 82 137 6.1 11.3 0.00 0.01 0.01 45 1006.4
20260510000105 82 138 6.1 12.2 0.00 0.01 0.01 44 1006.5
20260509235605 82 155 5.2 13.0 0.00 0.01 0.01 43 1006.5
20260509235105 82 120 7.8 13.0 0.00 0.01 0.01 43 1006.4
20260509234105 83 141 8.7 13.0 0.00 0.01 0.01 43 1006.5
20260509233605 84 135 7.0 13.0 0.00 0.01 0.01 42 1006.4
20260509232605 84 132 8.7 13.0 0.00 0.01 0.01 41 1006.5
20260509231605 84 117 6.1 13.0 0.00 0.01 0.01 40 1006.6
20260509231105 84 111 7.8 13.0 0.00 0.01 0.01 40 1006.6
20260509230605 85 122 7.0 12.2 0.00 0.01 0.01 40 1006.7
20260509230105 85 135 7.8 12.2 0.00 0.01 0.01 39 1006.8
20260509225605 85 128 5.2 11.3 0.00 0.01 0.01 41 1006.7
20260509225105 85 120 7.0 17.4 0.00 0.01 0.01 40 1006.7
20260509224105 85 145 5.2 12.2 0.00 0.12 0.01 40 1006.9
20260509223605 85 130 7.8 12.2 0.00 0.25 0.01 41 1007.0
20260509222605 86 172 6.1 12.2 0.00 0.25 0.01 40 1007.2
20260509221605 86 140 6.1 12.2 0.00 0.25 0.01 39 1007.3
20260509221105 86 146 8.7 12.2 0.00 0.25 0.01 40 1007.4
20260509220605 86 153 7.0 12.2 0.00 0.25 0.01 40 1007.4
20260509215605 86 181 6.1 11.3 0.00 0.25 0.01 41 1007.4
20260509214605 86 96 5.2 10.4 0.00 0.25 0.01 38 1007.3
20260509213605 86 95 5.2 12.2 0.00 0.25 0.01 37 1007.4
20260509213105 86 77 5.2 12.2 0.00 0.25 0.01 38 1007.4
20260509211605 86 81 4.3 11.3 0.00 0.25 0.01 40 1007.5
20260509211106 86 111 7.8 11.3 0.00 0.25 0.01 40 1007.7
20260509210105 86 103 3.5 10.4 0.00 0.25 0.01 41 1007.8
20260509205605 86 82 6.1 10.4 0.00 0.25 0.01 39 1007.9
20260509204605 86 102 1.7 11.3 0.00 0.25 0.01 40 1007.9
20260509204105 86 103 4.3 11.3 0.00 0.25 0.01 41 1008.0
20260509203605 86 109 6.1 11.3 0.00 0.25 0.01 40 1008.1
20260509202605 86 92 4.3 10.4 0.00 0.25 0.01 40 1008.2
20260509202105 86 101 1.7 10.4 0.00 0.25 0.01 40 1008.2
20260509201105 85 88 6.1 10.4 0.00 0.25 0.01 41 1008.3
20260509200605 85 136 5.2 10.4 0.00 0.25 0.01 40 1008.4
20260509200105 85 40 2.6 7.0 0.00 0.25 0.01 43 1008.5
20260509195605 84 214 4.3 8.7 0.00 0.25 0.01 41 1008.7
20260509194605 84 171 3.5 8.7 0.00 0.25 0.01 39 1008.8
20260509194105 84 200 3.5 13.0 0.00 0.25 0.01 39 1008.8
20260509193605 85 148 6.1 13.0 0.00 0.25 0.01 40 1008.9
20260509193105 84 206 4.3 10.4 0.00 0.25 0.01 39 1008.9
20260509192605 84 174 3.5 10.4 0.00 0.25 0.01 39 1008.9
20260509192105 84 136 6.1 11.3 0.00 0.25 0.01 43 1009.0
20260509191105 84 162 7.0 11.3 0.00 0.25 0.01 42 1009.1
20260509190605 83 3 1.7 11.3 0.00 0.25 0.01 45 1009.2
20260509190105 83 140 6.1 11.3 0.00 0.25 0.01 44 1009.2
20260509185605 83 142 6.1 10.4 0.00 0.25 0.01 44 1009.3
20260509185105 83 182 4.3 10.4 0.00 0.25 0.01 44 1009.4
20260509182606 83 145 1.7 8.7 0.00 0.25 0.01 48 1009.6
20260509182105 83 231 1.7 6.1 0.00 0.25 0.01 45 1009.6
20260509181105 82 254 0.9 6.1 0.00 0.25 0.01 43 1009.8
20260509180604 82 181 1.7 7.8 0.00 0.25 0.01 44 1009.9
20260509180105 81 87 4.3 10.4 0.00 0.25 0.01 48 1009.9
20260509175604 81 113 2.6 10.4 0.00 0.25 0.01 50 1010.1
20260509175105 81 157 3.5 7.8 0.00 0.25 0.01 55 1010.1
20260509174605 80 205 2.6 10.4 0.00 0.25 0.01 54 1010.2
20260509174105 80 149 6.1 10.4 0.00 0.25 0.01 55 1010.3
20260509173605 79 154 5.2 10.4 0.00 0.25 0.01 57 1010.4
20260509173105 79 205 4.3 10.4 0.00 0.25 0.01 59 1010.5
20260509171605 78 209 6.1 10.4 0.00 0.25 0.01 62 1010.6
20260509171105 78 214 4.3 10.4 0.00 0.25 0.01 62 1010.7
20260509170605 78 190 5.2 10.4 0.00 0.25 0.01 63 1010.8
20260509170105 78 235 3.5 10.4 0.00 0.25 0.01 61 1010.8
20260509165605 79 183 6.1 10.4 0.00 0.25 0.01 66 1010.8
20260509165105 79 163 3.5 10.4 0.00 0.25 0.01 55 1010.8
20260509164605 80 189 3.5 7.8 0.00 0.25 0.01 55 1010.9
20260509164105 80 108 4.3 7.8 0.00 0.25 0.01 51 1010.9
20260509163605 80 121 2.6 7.0 0.00 0.25 0.01 51 1010.9
20260509163105 79 101 2.6 7.0 0.00 0.25 0.01 56 1010.8
20260509162105 77 136 2.6 8.7 0.00 0.25 0.01 58 1010.9
20260509161605 78 198 4.3 8.7 0.00 0.25 0.01 60 1011.0
20260509161106 78 108 3.5 7.8 0.00 0.25 0.01 57 1011.0
20260509160105 77 116 4.3 8.7 0.00 0.25 0.01 58 1011.0
20260509155605 76 144 4.3 8.7 0.00 0.25 0.01 60 1011.0
20260509155105 76 133 5.2 8.7 0.00 0.25 0.01 63 1010.9
20260509154605 75 116 5.2 7.8 0.00 0.25 0.01 66 1010.7
20260509154105 75 125 6.1 7.8 0.00 0.25 0.01 67 1010.8
20260509153605 74 97 4.3 7.8 0.00 0.25 0.01 69 1010.7
20260509153105 74 121 5.2 8.7 0.00 0.25 0.01 69 1010.7
20260509152104 73 141 2.6 7.8 0.00 0.25 0.01 74 1010.9
20260509151105 72 142 4.3 7.0 0.00 0.25 0.01 74 1010.8
20260509150605 72 119 2.6 6.1 0.00 0.25 0.01 76 1010.8
20260509150105 72 152 2.6 5.2 0.00 0.25 0.01 78 1010.8
20260509145605 71 96 2.6 6.1 0.00 0.25 0.01 80 1010.8
20260509145104 71 82 2.6 6.1 0.00 0.25 0.01 80 1010.7
20260509144604 70 115 3.5 7.0 0.00 0.25 0.01 80 1010.6
20260509144105 70 103 3.5 7.0 0.00 0.25 0.01 83 1010.5
20260509143605 70 116 5.2 7.0 0.00 0.25 0.01 83 1010.6
20260509143104 70 98 2.6 5.2 0.00 0.25 0.01 86 1010.6
20260509142605 69 86 0.9 2.6 0.00 0.25 0.01 90 1010.7
20260509142105 68 47 0.0 0.0 0.00 0.25 0.01 91 1010.8
20260509141605 67 110 0.0 0.0 0.00 0.25 0.01 94 1010.7
20260509141105 66 153 0.0 1.7 0.00 0.25 0.01 95 1010.7
20260509140106 64 188 0.9 1.7 0.00 0.25 0.01 96 1010.8
20260509135605 64 188 0.9 1.7 0.00 0.25 0.01 97 1010.8
20260509134605 63 321 0.0 0.0 0.00 0.25 0.01 97 1010.8
20260509134105 63 321 0.0 0.0 0.00 0.25 0.01 98 1010.8
20260509133105 62 321 0.0 0.0 0.00 0.25 0.01 98 1010.6
20260509132605 62 321 0.0 0.0 0.00 0.25 0.01 98 1010.5
20260509132105 61 321 0.0 0.0 0.00 0.25 0.01 98 1010.5
20260509131604 61 321 0.0 0.9 0.00 0.25 0.01 98 1010.4
20260509131105 60 321 0.0 0.9 0.00 0.25 0.01 98 1010.3
20260509130605 60 321 0.0 0.9 0.00 0.25 0.01 98 1010.2
20260509130104 59 320 0.0 0.0 0.00 0.25 0.01 98 1010.2
20260509125104 58 320 0.0 0.9 0.00 0.25 0.01 98 1010.2
20260509124604 58 319 0.0 0.9 0.00 0.25 0.01 98 1010.2
20260509123605 56 319 0.0 0.0 0.00 0.25 0.01 98 1010.0
20260509123104 55 319 0.0 0.0 0.00 0.25 0.01 98 1010.0
20260509122605 54 319 0.0 0.0 0.00 0.25 0.01 98 1010.0
20260509122105 54 319 0.0 0.0 0.00 0.25 0.01 97 1009.9
20260509121604 54 319 0.0 0.0 0.00 0.25 0.01 97 1010.0
20260509121105 54 319 0.0 0.0 0.00 0.25 0.01 97 1010.0
20260509120105 54 319 0.0 0.0 0.00 0.25 0.01 96 1009.9
20260509115605 54 319 0.0 0.0 0.00 0.25 0.01 96 1009.8
20260509115105 54 319 0.0 0.0 0.00 0.25 0.01 96 1009.7
20260509114605 54 319 0.0 0.0 0.00 0.25 0.01 96 1009.7
20260509114105 54 319 0.0 0.0 0.00 0.25 0.01 96 1009.8
20260509113605 54 319 0.0 0.0 0.00 0.25 0.01 97 1009.7
20260509112605 54 319 0.0 0.0 0.00 0.25 0.01 96 1009.5
20260509112105 54 319 0.0 0.0 0.00 0.25 0.01 96 1009.4
20260509111605 54 319 0.0 0.9 0.00 0.25 0.01 95 1009.3
20260509110105 55 319 0.0 0.0 0.01 0.25 0.01 96 1009.1
20260509105104 55 319 0.0 0.0 0.01 0.25 0.01 96 1009.2
20260509104605 55 319 0.0 0.0 0.01 0.25 0.01 96 1009.3
20260509103605 56 319 0.0 0.0 0.01 0.25 0.01 96 1009.3
20260509103105 56 319 0.0 0.0 0.01 0.25 0.01 96 1009.4
20260509102605 56 319 0.0 0.0 0.01 0.25 0.01 96 1009.3
20260509101604 56 319 0.0 0.0 0.01 0.25 0.01 96 1009.4
20260509101104 56 319 0.0 0.0 0.01 0.25 0.01 96 1009.5
20260509100605 56 319 0.0 0.0 0.01 0.25 0.01 96 1009.7
20260509100105 57 319 0.0 0.9 0.00 0.24 0.00 96 1009.8
20260509095104 57 319 0.0 2.6 0.00 0.24 0.00 96 1009.8
20260509094605 57 310 1.7 2.6 0.00 0.24 0.00 96 1009.9
20260509094105 57 275 0.9 2.6 0.00 0.24 0.00 96 1010.0
20260509093604 56 302 0.0 1.7 0.00 0.24 0.00 96 1010.0
20260509093104 56 300 0.0 1.7 0.00 0.24 0.00 94 1010.0
20260509091604 57 256 0.0 0.0 0.00 0.24 0.00 96 1009.8
20260509091104 57 256 0.0 0.0 0.00 0.24 0.00 96 1009.7
20260509090605 56 256 0.0 0.0 0.00 0.24 0.00 96 1009.7
20260509090105 56 256 0.0 0.0 0.00 0.24 0.00 96 1009.8
20260509085604 56 256 0.0 1.7 0.00 0.24 0.00 96 1009.8
20260509085105 55 256 0.0 2.6 0.00 0.24 0.00 95 1010.0
20260509084605 55 256 0.9 2.6 0.00 0.24 0.00 94 1009.9
20260509084104 56 267 0.0 2.6 0.00 0.24 0.00 94 1009.8
20260509083604 56 265 0.9 1.7 0.00 0.24 0.00 94 1009.7
20260509082605 56 28 0.0 0.0 0.00 0.24 0.00 94 1009.7
20260509082105 57 28 0.0 0.0 0.00 0.24 0.00 93 1009.7
20260509081604 58 27 0.0 0.0 0.00 0.24 0.00 94 1009.7
20260509080605 58 27 0.0 1.7 0.00 0.24 0.00 95 1009.7
20260509080105 58 27 0.0 2.6 0.00 0.24 0.00 95 1009.8
20260509075604 58 27 1.7 2.6 0.00 0.24 0.00 95 1010.0
20260509075104 58 91 0.0 0.0 0.00 0.24 0.00 94 1010.0
20260509074605 58 91 0.0 0.0 0.00 0.24 0.00 94 1010.0
20260509073604 59 342 0.0 0.0 0.00 0.24 0.00 94 1010.1
20260509072605 59 342 0.0 0.0 0.00 0.24 0.00 95 1010.2
20260509072105 59 342 0.0 1.7 0.00 0.24 0.00 95 1010.2
20260509071604 59 342 0.0 2.6 0.00 0.24 0.00 95 1010.2
20260509071104 59 342 0.9 2.6 0.00 0.24 0.00 94 1010.3
20260509070105 60 261 0.0 0.0 0.00 0.24 0.00 93 1010.3
20260509065604 60 261 0.0 0.0 0.00 0.24 0.00 94 1010.4
20260509065105 60 261 0.0 0.0 0.00 0.24 0.00 94 1010.3
20260509064605 60 305 0.0 2.6 0.00 0.24 0.00 94 1010.2
20260509064104 60 305 0.0 2.6 0.00 0.24 0.00 94 1010.3
20260509063604 60 148 0.0 2.6 0.00 0.24 0.00 94 1010.2
20260509062605 60 77 0.0 2.6 0.00 0.24 0.00 93 1010.4
20260509062104 60 77 0.9 2.6 0.00 0.24 0.00 92 1010.6